Wind_Speed
17 18 18 19 20 22 25 27 26 26 25 22 21 20 20 22 24 22 21 20 20 22 23 23 27 25 21 18 16 12 11 12 12 13 15 15 15 14 15 15 17 18 18 20 20 20 19 19 18 18 17 16
18 20 21 22 22 23 25 27 29 27 26 25 23 21 21 21 23 23 22 20 21 23 24 26 28 26 21 18 16 13 11 12 13 14 14 14 15 15 15 17 18 18 18 19 19 19 19 20 20 19 17 16
20 22 23 23 25 27 27 26 28 29 27 26 24 22 21 20 22 23 22 22 23 24 26 28 28 26 23 20 17 15 13 11 12 14 15 15 16 15 15 18 20 20 20 20 20 20 20 20 20 19 18 17
19 21 22 22 24 28 31 29 26 28 29 28 26 24 21 19 20 23 23 23 24 27 28 29 28 25 24 22 17 16 15 12 11 13 15 17 17 15 15 19 21 22 21 21 21 21 21 21 20 19 19 18
21 21 22 22 23 24 29 31 27 27 30 32 28 22 20 19 19 21 25 26 26 29 30 29 29 27 24 23 18 16 16 14 12 11 15 18 17 15 16 19 22 23 23 22 22 22 21 21 22 21 20 19
23 23 23 23 24 24 25 28 28 28 30 32 28 23 22 21 21 22 26 28 28 31 32 30 29 28 26 23 19 17 16 15 13 12 16 18 17 16 17 19 22 24 24 24 23 22 22 22 23 22 21 20
23 24 24 24 24 24 24 25 27 28 30 31 28 27 26 24 24 25 26 29 30 32 33 31 29 29 28 25 21 20 18 16 14 13 15 16 17 19 19 20 22 24 26 26 25 23 22 22 23 23 22 21
23 24 24 25 25 24 23 22 25 27 28 30 29 29 30 29 28 27 27 29 31 32 34 33 31 30 30 27 24 22 21 19 17 16 17 17 18 20 21 22 23 25 26 27 27 25 24 22 22 22 22 21
23 23 23 24 24 24 23 22 23 25 28 31 32 32 33 32 30 29 29 29 31 33 36 35 33 32 32 30 27 25 24 22 19 19 20 20 21 22 23 24 24 25 26 27 28 27 26 24 23 23 23 22
22 22 22 22 23 24 23 23 22 23 26 29 31 33 36 35 33 31 30 30 32 34 36 37 36 34 34 34 31 29 28 26 22 21 22 23 24 25 25 25 25 25 26 28 29 29 27 25 24 24 24 23
22 21 21 21 22 23 23 24 23 21 23 24 27 33 38 39 36 33 31 30 32 33 36 38 38 37 37 37 35 34 33 31 27 24 25 26 26 26 27 26 26 26 26 28 30 30 29 27 26 25 25 24
21 20 19 19 20 21 22 23 24 23 22 22 24 28 36 42 39 33 31 31 31 32 34 38 39 39 39 39 39 37 34 33 29 27 27 28 28 28 28 28 27 27 27 28 30 30 30 28 28 27 26 25
20 19 18 17 18 18 20 21 22 23 23 23 22 24 31 38 35 32 34 33 31 31 34 38 41 40 40 40 39 38 36 33 30 29 29 29 29 30 29 29 28 28 28 29 30 30 29 29 29 29 27 27
17 18 18 17 16 17 17 18 18 19 20 21 20 21 25 29 29 33 38 33 27 29 32 39 44 43 40 39 37 36 34 33 32 31 31 30 30 30 29 29 29 28 28 29 29 29 30 30 30 30 29 28
15 17 18 18 16 15 15 15 15 15 15 15 14 15 19 22 22 26 31 26 22 26 29 36 43 41 37 36 34 34 34 33 32 31 31 30 30 30 29 29 29 28 29 29 29 30 30 31 31 31 31 29
13 15 17 18 16 15 14 13 13 13 13 13 12 11 13 16 17 17 22 23 22 26 30 32 32 32 35 35 32 31 29 28 27 27 28 29 29 28 28 29 29 29 30 30 29 29 30 31 32 31 31 30
11 14 15 15 14 14 14 13 13 13 12 13 13 12 11 13 15 16 21 25 25 30 34 28 23 27 32 34 31 29 26 24 24 24 25 25 26 26 26 27 28 28 29 28 28 27 28 29 30 29 29 29
10 11 11 10 10 11 12 13 13 13 13 12 13 13 14 14 15 18 21 25 27 31 33 30 25 27 30 34 35 33 29 27 25 25 25 24 24 24 24 25 26 28 28 28 28 27 26 26 27 28 28 28
9 9 9 7 8 8 8 9 11 11 11 12 12 12 14 15 16 18 20 23 26 29 32 32 30 30 31 34 34 30 28 28 28 28 27 25 24 23 24 26 27 28 29 29 29 28 26 25 25 26 26 27
9 9 9 9 9 9 9 9 9 10 10 10 10 11 12 14 15 15 15 18 21 24 27 28 29 30 32 34 33 30 30 30 29 29 28 26 25 24 24 26 27 28 29 29 29 29 27 26 24 24 24 25
10 10 10 10 11 11 12 12 11 11 10 10 10 10 10 11 12 13 14 15 16 17 19 22 26 28 30 32 32 32 31 30 29 29 29 28 26 25 23 25 27 29 30 30 29 28 27 26 25 24 24 24
11 11 11 12 12 12 13 14 14 13 13 12 11 11 11 11 11 13 14 15 15 14 14 17 21 24 27 29 31 31 30 30 31 30 30 28 26 26 24 25 28 30 31 31 30 28 27 26 26 26 26 26
12 13 13 13 13 14 14 15 16 17 16 14 13 13 13 13 14 14 14 14 15 14 14 14 17 21 24 27 29 30 31 32 31 31 30 28 28 28 26 26 28 30 32 32 30 29 28 27 27 27 27 28
11 12 13 14 15 15 15 15 16 17 18 17 15 14 14 15 15 16 15 15 15 15 15 16 17 19 22 25 28 31 32 33 32 31 31 30 29 30 29 29 30 32 33 32 30 29 28 28 28 28 28 28
11 11 12 14 15 16 16 15 16 16 17 17 17 16 15 15 16 16 17 17 16 16 17 17 18 19 22 24 27 30 32 32 32 32 32 31 31 32 32 31 33 34 34 33 31 29 29 29 28 28 28 29
12 11 11 12 13 14 15 16 16 16 16 17 17 17 16 15 15 16 17 18 18 19 19 19 20 20 22 24 26 29 30 32 32 33 34 33 33 33 33 33 33 34 34 34 33 32 30 29 29 29 29 29
13 12 12 12 12 13 14 15 15 15 16 16 17 17 16 15 15 16 17 18 18 19 20 21 22 22 22 23 25 27 30 32 33 33 33 34 34 34 33 33 33 34 34 34 33 31 28 28 27 26 27 29
14 14 13 12 13 14 14 14 15 15 15 16 17 17 16 16 16 16 17 17 18 19 20 21 22 23 24 24 25 26 29 31 33 33 33 34 36 37 36 35 35 35 36 37 35 29 26 24 23 22 26 30
16 15 14 13 13 13 14 14 15 15 15 16 16 16 16 16 16 17 17 17 17 18 19 20 21 23 25 26 26 27 28 29 31 32 33 35 37 39 39 38 37 36 37 38 36 32 26 21 20 25 29 29
19 17 16 14 13 13 14 14 15 16 16 16 17 17 17 16 17 16 17 17 16 17 17 18 19 21 23 26 27 28 28 29 31 32 34 36 38 39 40 38 37 36 36 36 36 36 34 28 25 28 27 26
19 19 18 17 15 14 14 15 16 16 17 17 17 17 17 17 17 17 17 16 16 16 17 17 18 19 21 24 26 28 29 30 32 34 36 37 39 39 39 38 38 37 36 36 37 38 38 36 33 28 25 25
Wind_Direction
278 276 272 268 262 255 250 245 247 248 246 251 258 265 270 262 255 252 251 248 246 242 237 238 244 246 244 241 242 249 255 253 247 239 229 222 219 211 203 197 191 190 196 201 206 210 212 215 219 223 226 228
280 276 271 267 264 261 257 249 244 245 246 247 250 260 268 264 256 252 251 246 242 242 239 239 244 249 250 245 250 262 264 260 255 240 227 224 222 215 205 193 186 187 196 202 204 206 211 215 217 220 222 225
275 277 273 267 263 259 258 256 250 246 247 245 245 254 258 259 257 253 251 245 240 241 242 242 244 249 252 250 254 263 264 264 260 237 221 223 225 222 208 192 186 189 196 203 205 206 210 214 216 219 219 219
269 275 276 271 266 260 252 249 250 251 250 245 243 246 247 250 255 256 255 247 240 243 244 244 246 247 248 254 259 261 259 263 265 241 223 222 223 220 208 196 192 192 197 203 207 210 213 216 218 218 220 218
275 277 278 277 274 268 255 245 245 251 253 248 241 241 245 246 252 258 258 249 240 243 244 246 249 247 249 255 258 256 258 261 266 248 228 226 224 218 211 204 200 196 198 204 207 212 215 219 222 223 223 220
284 284 281 282 279 271 265 257 251 249 249 249 243 241 243 245 252 257 257 249 243 243 243 247 249 248 253 255 250 248 253 257 261 251 232 233 233 227 221 214 209 203 201 205 208 212 216 220 225 227 226 222
289 289 285 286 285 276 271 266 261 251 241 243 246 243 242 247 255 256 253 247 244 244 243 246 246 247 255 253 244 238 239 246 253 251 241 242 244 238 232 224 218 212 207 206 209 212 216 220 224 227 226 222
291 291 289 288 286 281 274 266 262 258 244 240 245 246 244 249 254 253 250 244 241 244 245 245 245 247 250 243 237 235 232 234 240 245 245 244 242 242 239 233 227 220 214 210 211 213 215 218 221 224 223 221
292 291 290 288 285 282 278 270 262 263 255 243 241 246 248 248 249 248 246 243 240 241 243 244 245 246 243 235 235 244 238 229 234 243 246 243 236 238 239 237 233 227 221 215 213 215 217 219 220 222 222 220
295 291 289 287 285 282 282 277 270 266 261 252 245 247 251 249 245 243 243 245 243 242 244 244 244 241 238 236 239 249 245 235 239 247 248 243 234 231 231 232 235 231 228 223 219 218 219 223 223 222 222 219
296 292 288 286 285 284 283 282 281 276 271 268 257 249 252 251 245 242 242 245 245 245 246 246 245 239 237 240 241 244 243 241 245 250 248 240 231 227 224 226 230 229 229 228 225 224 223 225 226 224 222 219
296 293 287 284 283 283 283 285 285 285 282 280 271 262 259 254 247 243 244 247 247 248 250 248 243 238 238 243 243 239 237 240 244 245 240 231 225 222 220 222 223 224 227 227 226 227 225 224 225 224 222 220
297 295 290 284 281 280 281 284 285 287 286 287 289 286 269 253 246 248 248 246 247 248 249 246 238 233 233 234 235 233 233 236 238 240 233 223 219 217 217 219 221 223 225 224 222 224 225 223 223 222 221 220
296 296 294 289 286 282 280 283 283 283 285 290 298 295 269 248 244 249 245 243 251 256 253 247 235 227 225 224 223 224 229 231 231 234 227 216 214 215 216 217 219 222 222 220 219 219 221 222 222 221 220 218
292 295 295 293 290 288 284 284 283 281 282 288 300 298 275 261 257 249 241 245 264 269 265 255 239 229 225 223 221 221 223 224 220 219 213 207 210 212 215 216 216 218 219 217 215 214 215 217 218 219 219 218
288 290 294 295 293 292 287 285 285 286 288 288 290 291 282 280 281 266 249 249 260 265 265 260 251 250 242 230 224 221 219 218 213 211 208 205 209 212 216 218 217 217 217 215 213 211 212 213 214 213 213 213
287 289 294 298 298 294 287 282 281 282 289 294 291 286 280 279 279 273 259 251 254 257 254 252 262 272 260 246 240 234 228 225 223 222 218 212 213 217 221 222 221 219 218 217 216 213 212 212 211 209 207 206
288 289 294 303 305 300 292 285 282 278 278 284 290 289 282 275 266 262 257 253 256 255 246 243 252 259 255 250 245 238 234 232 232 232 227 222 219 220 225 227 226 226 224 222 222 218 213 211 209 207 205 203
292 289 288 297 306 305 298 290 287 283 276 274 278 285 285 280 269 261 257 256 258 253 241 238 243 246 246 246 240 237 237 234 232 232 229 229 226 225 228 229 228 228 227 225 225 222 217 213 209 206 203 202
291 290 288 289 295 296 292 290 289 288 288 285 280 281 282 283 280 274 270 266 262 256 249 246 248 248 249 248 243 238 236 229 227 228 228 232 234 235 233 231 229 228 228 228 227 224 221 217 212 210 206 203
286 292 294 294 296 294 290 286 282 284 289 292 290 285 279 279 280 280 281 278 271 266 265 266 263 257 252 250 244 238 235 231 231 232 231 232 234 236 235 234 233 231 230 228 227 225 223 220 218 217 215 212
277 284 293 298 301 300 298 294 288 286 286 286 289 289 286 283 281 281 280 281 280 275 273 273 271 265 256 251 246 242 241 238 234 231 230 230 231 230 234 238 236 233 231 229 226 225 223 222 220 218 220 221
276 276 283 291 297 299 300 301 300 299 296 293 290 289 291 292 289 287 284 282 283 282 279 274 270 266 260 255 251 247 244 239 234 230 229 230 229 227 230 236 236 234 231 227 226 226 224 223 221 221 223 224
280 276 276 280 286 292 296 299 302 304 304 304 301 298 298 300 300 297 295 292 288 285 281 275 270 265 261 257 255 251 247 242 237 233 230 230 230 229 228 229 231 232 231 227 224 224 225 226 226 227 228 227
280 276 275 276 277 282 288 291 296 299 303 306 306 304 303 303 305 305 305 302 295 288 282 276 271 266 261 258 255 252 248 244 239 234 232 233 231 232 233 230 228 229 231 229 225 221 221 225 228 229 230 230
290 281 279 280 279 280 283 286 290 292 295 300 302 304 302 300 300 304 307 305 300 292 284 277 271 266 260 257 255 252 248 243 239 235 235 235 232 231 234 235 232 230 227 226 227 226 222 220 223 227 228 229
308 296 286 282 282 283 284 284 286 288 291 294 297 299 299 296 293 295 299 300 298 292 286 281 275 269 261 254 251 250 248 244 239 237 236 237 236 235 233 233 234 232 226 223 224 224 223 223 223 224 226 226
325 312 299 290 285 283 284 286 287 289 289 289 291 294 295 294 291 289 290 291 291 287 283 280 277 273 267 257 249 245 246 245 241 238 238 237 237 238 237 233 229 228 226 225 225 221 220 222 220 223 227 224
344 331 319 305 294 288 286 287 290 292 291 290 290 291 290 290 289 287 286 287 285 283 279 275 273 272 269 263 254 245 241 242 242 240 240 239 237 239 241 238 231 227 226 226 227 227 223 219 218 226 229 224
358 349 339 325 311 300 294 291 292 293 294 295 294 294 293 291 290 288 288 287 284 280 276 271 267 264 263 261 257 251 243 238 238 238 238 239 238 238 239 239 237 234 233 231 230 231 231 231 236 238 230 219
360 357 352 344 332 318 307 300 297 296 297 298 298 298 298 296 295 294 293 293 290 285 280 274 268 261 257 255 253 251 247 240 236 235 235 236 236 236 235 236 239 240 240 237 234 234 234 235 241 245 238 225
Height
1556 1556 1555 1555 1554 1554 1554 1554 1554 1554 1554 1554 1555 1556 1556 1556 1557 1557 1558 1558 1559 1560 1560 1559 1558 1558 1561 1562 1563 1563 1563 1563 1562 1561 1561 1561 1562 1562 1562 1562 1562 1562 1562 1562 1562 1563 1563 1564 1565 1565 1566 1566
1554 1554 1553 1552 1552 1552 1552 1551 1551 1551 1551 1552 1552 1553 1553 1554 1555 1555 1557 1557 1558 1558 1558 1558 1557 1557 1559 1561 1562 1562 1563 1562 1561 1561 1560 1560 1561 1561 1561 1562 1562 1562 1561 1561 1562 1562 1562 1563 1563 1564 1565 1565
1553 1551 1550 1550 1550 1550 1550 1549 1549 1549 1549 1550 1550 1550 1551 1551 1552 1553 1555 1556 1556 1556 1556 1556 1556 1557 1558 1559 1561 1561 1561 1562 1561 1560 1559 1559 1559 1560 1561 1561 1561 1561 1561 1561 1561 1561 1561 1562 1562 1563 1563 1564
1551 1549 1548 1548 1548 1548 1547 1547 1548 1548 1549 1549 1548 1549 1549 1549 1550 1551 1552 1553 1554 1553 1553 1554 1555 1556 1556 1558 1560 1560 1560 1561 1560 1559 1558 1557 1557 1559 1559 1560 1560 1560 1560 1560 1560 1561 1561 1561 1562 1562 1562 1563
1550 1548 1547 1546 1545 1545 1545 1545 1546 1546 1547 1547 1548 1549 1549 1548 1548 1549 1549 1550 1551 1550 1550 1551 1553 1554 1555 1556 1558 1559 1559 1559 1559 1558 1557 1556 1557 1558 1558 1558 1558 1558 1559 1559 1559 1560 1560 1560 1561 1561 1561 1562
1548 1548 1546 1544 1543 1542 1542 1542 1544 1543 1543 1545 1547 1548 1547 1547 1546 1546 1546 1547 1548 1547 1547 1548 1550 1552 1553 1554 1555 1556 1557 1558 1558 1558 1557 1556 1557 1557 1557 1557 1557 1557 1558 1558 1558 1559 1559 1559 1559 1560 1560 1561
1546 1546 1544 1542 1541 1541 1540 1540 1540 1541 1542 1543 1545 1546 1545 1545 1544 1543 1543 1544 1545 1545 1546 1547 1548 1550 1551 1552 1553 1553 1554 1555 1556 1556 1556 1556 1556 1556 1556 1556 1556 1556 1556 1557 1557 1558 1558 1558 1558 1559 1559 1560
1543 1543 1542 1541 1540 1539 1538 1538 1539 1539 1540 1541 1543 1543 1543 1542 1542 1541 1541 1541 1542 1543 1544 1545 1546 1547 1548 1550 1550 1551 1552 1553 1553 1554 1554 1555 1555 1554 1554 1554 1554 1554 1555 1555 1556 1556 1557 1557 1558 1558 1558 1559
1541 1540 1540 1539 1539 1538 1537 1537 1538 1538 1538 1539 1540 1541 1540 1540 1539 1539 1539 1539 1539 1539 1541 1542 1544 1544 1545 1547 1548 1549 1550 1551 1551 1551 1552 1553 1553 1552 1552 1552 1553 1553 1553 1553 1554 1555 1556 1557 1557 1558 1558 1558
1539 1538 1538 1537 1537 1537 1536 1536 1536 1536 1536 1536 1538 1539 1538 1538 1537 1537 1537 1537 1537 1537 1538 1539 1540 1541 1542 1543 1544 1545 1547 1548 1548 1549 1550 1551 1551 1550 1550 1550 1550 1551 1552 1552 1552 1553 1554 1555 1556 1557 1557 1558
1537 1536 1536 1535 1535 1535 1535 1534 1533 1534 1534 1534 1535 1536 1536 1537 1537 1536 1535 1535 1536 1536 1537 1538 1538 1539 1539 1540 1541 1542 1543 1545 1545 1546 1547 1548 1548 1549 1548 1548 1548 1549 1550 1550 1551 1551 1552 1553 1555 1556 1556 1557
1536 1535 1534 1534 1534 1533 1533 1532 1531 1531 1532 1532 1532 1533 1533 1533 1534 1535 1534 1533 1534 1535 1536 1537 1537 1538 1537 1537 1538 1539 1540 1541 1542 1543 1545 1545 1546 1546 1546 1547 1546 1546 1547 1548 1549 1549 1550 1551 1552 1554 1555 1556
1535 1534 1533 1533 1532 1532 1531 1530 1530 1529 1530 1530 1529 1530 1529 1529 1530 1532 1531 1532 1532 1533 1535 1536 1535 1535 1535 1535 1535 1536 1536 1537 1539 1540 1541 1542 1543 1544 1544 1545 1545 1545 1545 1546 1547 1548 1548 1549 1550 1551 1553 1554
1534 1533 1532 1531 1531 1530 1530 1529 1528 1528 1528 1528 1528 1527 1527 1527 1528 1528 1528 1530 1532 1533 1533 1534 1533 1532 1531 1532 1533 1535 1535 1535 1536 1536 1537 1539 1541 1542 1543 1543 1543 1543 1544 1545 1546 1546 1546 1547 1548 1549 1550 1551
1532 1532 1531 1530 1529 1528 1528 1528 1527 1527 1527 1526 1526 1526 1526 1526 1527 1527 1527 1529 1531 1531 1532 1532 1531 1531 1530 1531 1533 1534 1535 1534 1534 1534 1534 1535 1538 1540 1541 1542 1541 1542 1542 1543 1544 1544 1544 1544 1545 1546 1547 1549
1531 1530 1529 1529 1528 1527 1527 1527 1526 1526 1526 1525 1524 1524 1525 1525 1526 1527 1527 1528 1529 1529 1529 1530 1531 1532 1532 1532 1533 1535 1536 1536 1536 1536 1534 1534 1536 1538 1539 1540 1540 1540 1541 1541 1542 1542 1542 1542 1542 1544 1545 1546
1530 1529 1528 1528 1527 1527 1526 1526 1525 1525 1525 1524 1523 1523 1523 1524 1525 1525 1526 1526 1527 1527 1527 1528 1530 1531 1532 1532 1534 1536 1538 1539 1539 1539 1537 1536 1537 1538 1540 1541 1541 1540 1540 1541 1541 1541 1541 1541 1541 1542 1543 1544
1529 1528 1527 1527 1526 1526 1525 1525 1524 1524 1524 1523 1523 1523 1523 1523 1524 1524 1525 1526 1526 1526 1526 1526 1527 1527 1529 1530 1531 1532 1535 1537 1538 1539 1539 1537 1537 1538 1539 1540 1540 1540 1540 1540 1541 1541 1542 1542 1541 1541 1541 1542
1529 1528 1527 1526 1526 1525 1525 1524 1524 1523 1523 1523 1522 1522 1523 1523 1523 1524 1524 1524 1525 1525 1525 1525 1525 1524 1525 1527 1529 1530 1532 1533 1535 1536 1537 1537 1536 1536 1537 1538 1539 1539 1539 1539 1540 1540 1541 1542 1542 1542 1541 1542
1528 1527 1526 1526 1525 1525 1524 1524 1523 1523 1522 1522 1522 1522 1522 1523 1523 1523 1523 1524 1524 1524 1524 1524 1524 1524 1525 1525 1527 1528 1529 1531 1532 1532 1533 1534 1534 1534 1535 1537 1537 1538 1538 1538 1539 1539 1540 1541 1542 1543 1543 1542
1527 1526 1526 1525 1525 1524 1524 1523 1523 1522 1522 1522 1522 1522 1522 1522 1522 1523 1523 1523 1523 1523 1523 1524 1523 1523 1524 1524 1525 1527 1527 1529 1530 1530 1530 1531 1531 1532 1533 1534 1535 1535 1536 1537 1537 1538 1539 1540 1541 1542 1542 1543
1526 1525 1525 1524 1524 1524 1523 1523 1522 1522 1521 1521 1521 1521 1521 1521 1521 1522 1522 1522 1521 1521 1521 1521 1522 1522 1522 1523 1524 1526 1526 1527 1527 1527 1527 1528 1529 1529 1530 1530 1531 1532 1533 1534 1535 1536 1537 1538 1539 1539 1540 1541
1525 1524 1524 1524 1523 1523 1523 1522 1522 1521 1521 1520 1520 1520 1520 1520 1520 1520 1520 1520 1519 1519 1519 1519 1520 1520 1521 1522 1523 1524 1525 1525 1525 1525 1525 1525 1526 1527 1527 1528 1528 1529 1530 1531 1533 1533 1534 1535 1536 1537 1537 1538
1523 1523 1523 1523 1523 1522 1522 1522 1521 1521 1520 1520 1519 1519 1519 1519 1518 1518 1518 1518 1518 1518 1518 1518 1518 1519 1520 1521 1522 1522 1523 1523 1523 1523 1523 1523 1523 1524 1525 1525 1526 1526 1527 1528 1530 1531 1532 1533 1533 1534 1535 1535
1522 1522 1522 1522 1522 1521 1521 1521 1521 1520 1520 1519 1519 1518 1518 1518 1517 1517 1517 1517 1517 1517 1517 1517 1517 1518 1518 1519 1519 1520 1520 1521 1521 1521 1522 1521 1522 1523 1523 1523 1522 1522 1524 1526 1527 1528 1529 1530 1530 1531 1532 1533
1521 1521 1521 1521 1520 1520 1520 1520 1520 1519 1519 1519 1518 1518 1517 1517 1516 1516 1516 1516 1516 1516 1516 1516 1517 1516 1517 1517 1518 1518 1519 1519 1519 1520 1520 1519 1520 1521 1522 1521 1521 1520 1521 1523 1523 1524 1526 1527 1527 1528 1528 1529
1521 1520 1520 1520 1519 1519 1519 1518 1518 1518 1518 1517 1517 1517 1516 1516 1516 1515 1515 1514 1514 1514 1514 1515 1515 1515 1515 1516 1516 1517 1517 1517 1517 1518 1518 1518 1518 1519 1520 1520 1520 1519 1520 1520 1520 1522 1524 1524 1525 1525 1525 1526
1520 1519 1519 1519 1519 1518 1518 1517 1517 1516 1516 1516 1515 1515 1515 1515 1515 1514 1514 1513 1513 1513 1513 1513 1513 1513 1513 1514 1514 1514 1515 1515 1515 1515 1516 1516 1517 1517 1517 1517 1517 1517 1517 1517 1518 1519 1521 1522 1523 1522 1521 1522
1520 1519 1518 1518 1518 1517 1517 1517 1516 1515 1515 1514 1514 1513 1513 1513 1513 1513 1513 1512 1512 1512 1512 1511 1511 1511 1511 1512 1512 1512 1513 1513 1513 1513 1514 1514 1514 1514 1514 1514 1514 1514 1514 1515 1516 1517 1517 1519 1519 1516 1516 1519
1520 1518 1517 1517 1516 1516 1516 1516 1515 1514 1514 1513 1513 1512 1512 1511 1511 1511 1511 1511 1511 1510 1510 1510 1509 1509 1510 1510 1510 1510 1511 1511 1512 1512 1512 1512 1512 1513 1513 1513 1513 1512 1512 1513 1514 1514 1514 1514 1513 1512 1514 1517
1520 1519 1517 1516 1515 1515 1515 1514 1514 1514 1513 1512 1512 1511 1511 1510 1510 1510 1509 1509 1509 1509 1509 1508 1508 1508 1508 1508 1509 1509 1509 1509 1510 1510 1510 1510 1511 1511 1512 1512 1511 1510 1510 1510 1511 1511 1511 1511 1511 1511 1512 1514